Starlink 2222

operational
NORAD ID: 48572 Int'l Des: 2021-041 Owner: SPXS Country: US Constellation: starlink
LEOCIRCULARSTARLINK_TYPE

Starlink 2222について

説明を読み込み中...

リアルタイム位置

3D地球を読み込み中...

次回通過

高度履歴

Altitude vs Time

uPlot chart will show altitude changes over time

軌道要素

1 48572U 21041V 25308.82394657 .00001535 00000-0 12190-3 0 9996
2 48572 53.0552 342.1617 0001718 86.1865 273.9321 15.06404050246243
Epoch: Nov 4, 2025 • Age: 14 hours

現在のステータス

高度 566.3 km
速度 7.58 km/s
衛星直下点 -51.77°S, 41.56°E
打ち上げ日 May 15, 2021
運用期間 4.4 years
タイプ internet

技術仕様

分類 Payload
質量 260.00 kg
乾燥質量 248.00 kg
総質量 260.00 kg
長さ 0.20 m
直径 2.80 m
スパン 9.00 m
形状 Box + pan
製造者 SPXS
バスタイプ Starlink
フェーズステータス In Orbit
所有者/国 SPXS/US

大規模コンステレーション

Loading constellations...